GW6941 Weather Reports


time (UTC)temp
F
wind
direction
speed
knots
gust
knots
rain 1hr
in
rain 24hr
in
rain mn
in
humidity
%
barometer
mb
20260507115842 52 10 0.0 0.9 0.00 0.00 0.00 78 1022.9
20260507115338 52 10 0.0 0.0 0.00 0.00 0.00 78 1022.9
20260507114833 52 10 0.0 0.0 0.00 0.00 0.00 77 1022.9
20260507114331 52 10 0.0 0.0 0.00 0.00 0.00 78 1022.8
20260507113828 52 10 1.7 1.7 0.00 0.00 0.00 77 1023.0
20260507113325 52 324 0.0 0.0 0.00 0.00 0.00 80 1023.1
20260507112823 52 324 0.0 0.0 0.00 0.00 0.00 78 1023.0
20260507112319 52 324 0.0 0.0 0.00 0.00 0.00 78 1023.1
20260507111818 52 324 0.0 0.0 0.00 0.00 0.00 78 1022.9
20260507111314 52 324 0.0 0.0 0.00 0.00 0.00 77 1022.9
20260507110810 52 324 0.0 0.0 0.00 0.00 0.00 77 1023.0
20260507110306 52 324 0.0 0.0 0.00 0.00 0.00 77 1022.9
20260507105803 52 324 0.0 0.0 0.00 0.00 0.00 77 1023.1
20260507105259 53 325 0.0 0.9 0.00 0.00 0.00 76 1023.1
20260507104757 53 324 0.0 0.9 0.00 0.00 0.00 77 1023.2
20260507104253 53 324 0.0 0.0 0.00 0.00 0.00 76 1023.3
20260507103749 53 324 0.0 0.0 0.00 0.00 0.00 76 1023.2
20260507103245 53 307 0.0 0.0 0.00 0.00 0.00 76 1023.4
20260507102742 53 307 0.0 0.9 0.00 0.00 0.00 76 1023.4
20260507102239 53 282 0.0 2.6 0.00 0.00 0.00 75 1023.3
20260507101735 53 358 0.0 0.0 0.00 0.00 0.00 75 1023.4
20260507101231 53 358 1.7 1.7 0.00 0.00 0.00 75 1023.2
20260507100728 53 0 1.7 1.7 0.00 0.00 0.00 75 1023.5
20260507100226 53 0 0.9 1.7 0.00 0.00 0.00 74 1023.3
20260507095724 53 324 0.0 0.0 0.00 0.00 0.00 75 1023.3
20260507095220 53 324 0.0 0.9 0.00 0.00 0.00 74 1023.3
20260507094717 53 323 0.0 0.9 0.00 0.00 0.00 74 1023.5
20260507094214 53 323 0.9 0.9 0.00 0.00 0.00 73 1023.4
20260507093711 53 339 0.0 0.9 0.00 0.00 0.00 74 1023.6
20260507093210 53 351 0.0 0.0 0.00 0.00 0.00 74 1023.7
20260507092706 53 351 0.0 0.9 0.00 0.00 0.00 75 1023.6
20260507092203 53 5 0.0 0.9 0.00 0.00 0.00 75 1023.7
20260507091659 53 261 1.7 2.6 0.00 0.00 0.00 74 1023.6
20260507091156 53 348 0.9 0.9 0.00 0.00 0.00 75 1023.8
20260507090651 53 22 0.9 1.7 0.00 0.00 0.00 75 1023.6
20260507090148 53 1 0.0 0.0 0.00 0.00 0.00 76 1023.8
20260507085645 53 54 0.0 0.9 0.00 0.00 0.00 76 1023.7
20260507085142 53 53 0.9 0.9 0.00 0.00 0.00 75 1023.6
20260507084639 53 8 1.7 2.6 0.00 0.00 0.00 76 1023.8
20260507084135 54 289 0.0 0.9 0.00 0.00 0.00 77 1023.7
20260507083632 54 279 0.9 0.9 0.00 0.00 0.00 77 1023.5
20260507083129 54 278 0.9 0.9 0.00 0.00 0.00 77 1023.8
20260507082625 54 12 0.0 0.0 0.00 0.00 0.00 78 1023.6
20260507082122 54 12 0.0 0.0 0.00 0.00 0.00 77 1023.8
20260507081618 54 12 0.0 0.9 0.00 0.00 0.00 77 1023.6
20260507081115 54 5 0.0 2.6 0.00 0.00 0.00 77 1023.5
20260507080611 54 50 0.0 0.9 0.00 0.00 0.00 77 1023.7
20260507080108 54 41 0.0 0.0 0.00 0.00 0.00 77 1023.6
20260507075603 54 41 0.9 0.9 0.00 0.00 0.00 76 1023.7
20260507075059 54 42 0.0 3.5 0.00 0.00 0.00 76 1023.6
20260507074556 54 63 0.9 1.7 0.00 0.00 0.00 76 1023.9
20260507074054 54 12 0.0 1.7 0.00 0.00 0.00 76 1023.8
20260507073550 54 10 1.7 1.7 0.00 0.00 0.00 76 1023.7
20260507073047 54 354 0.9 1.7 0.00 0.00 0.00 76 1023.8
20260507072544 54 350 0.9 0.9 0.00 0.00 0.00 76 1023.6
20260507072041 54 13 0.9 3.5 0.00 0.00 0.00 76 1023.5
20260507071539 54 26 0.0 1.7 0.00 0.00 0.00 76 1023.3
20260507071035 54 348 1.7 2.6 0.00 0.00 0.00 76 1023.5
20260507070532 54 276 0.0 0.0 0.00 0.00 0.00 77 1023.5
20260507070030 54 270 0.0 0.0 0.00 0.00 0.00 78 1023.6
20260507065526 54 330 0.0 0.0 0.00 0.00 0.00 78 1023.7
20260507065023 54 330 0.9 0.9 0.00 0.00 0.00 77 1023.6
20260507064521 54 329 0.0 0.0 0.00 0.00 0.00 77 1023.5
20260507064019 54 63 0.0 0.0 0.00 0.00 0.00 77 1023.6
20260507063516 55 53 2.6 2.6 0.00 0.00 0.00 77 1023.6
20260507063013 55 41 0.0 0.0 0.00 0.00 0.00 77 1023.7
20260507062510 55 7 0.9 2.6 0.00 0.00 0.00 77 1023.7
20260507062008 55 15 0.9 0.9 0.00 0.00 0.00 77 1023.8
20260507061505 55 40 0.9 0.9 0.00 0.00 0.00 77 1023.7
20260507061003 55 26 1.7 2.6 0.00 0.00 0.00 76 1023.6
20260507060500 55 352 0.0 2.6 0.00 0.00 0.00 76 1023.8
20260507055956 55 15 1.7 2.6 0.00 0.00 0.00 76 1023.8
20260507055452 55 348 0.9 0.9 0.00 0.00 0.00 76 1023.7
20260507054949 55 51 0.0 3.5 0.00 0.00 0.00 76 1023.4
20260507054444 55 325 2.6 3.5 0.00 0.00 0.00 76 1023.5
20260507053942 55 52 1.7 2.6 0.00 0.00 0.00 76 1023.7
20260507053440 56 44 1.7 2.6 0.00 0.00 0.00 76 1023.7
20260507052938 56 39 2.6 3.5 0.00 0.00 0.00 75 1023.6
20260507052435 56 45 1.7 2.6 0.00 0.00 0.00 75 1023.7
20260507051932 56 5 1.7 3.5 0.00 0.00 0.00 75 1023.8
20260507051430 56 54 0.9 3.5 0.00 0.00 0.00 75 1023.7
20260507050926 56 33 0.9 0.9 0.00 0.00 0.00 75 1023.5
20260507050423 56 49 1.7 2.6 0.00 0.00 0.00 75 1023.6
20260507045920 56 37 0.9 6.1 0.00 0.00 0.00 74 1023.6
20260507045416 56 337 1.7 2.6 0.00 0.00 0.00 74 1023.6
20260507044914 57 18 1.7 3.5 0.00 0.00 0.00 74 1023.6
20260507044410 57 41 1.7 6.1 0.00 0.00 0.00 74 1023.5
20260507043906 57 351 0.0 0.9 0.00 0.00 0.00 74 1023.3
20260507043403 57 299 1.7 3.5 0.00 0.00 0.00 74 1023.4
20260507042859 57 10 0.9 1.7 0.00 0.00 0.00 74 1023.4
20260507042356 58 335 1.7 1.7 0.00 0.00 0.00 74 1023.3
20260507041852 58 344 0.0 0.9 0.00 0.00 0.00 74 1023.5
20260507041349 58 10 0.9 0.9 0.00 0.00 0.00 74 1023.4
20260507040846 58 101 0.0 3.5 0.00 0.00 0.00 73 1023.2
20260507040342 58 34 3.5 6.1 0.00 0.00 0.00 73 1023.1
20260507035838 58 36 0.9 5.2 0.00 0.00 0.00 75 1023.0
20260507035333 58 337 0.9 1.7 0.00 0.00 0.00 75 1022.9
20260507034831 59 343 0.9 6.1 0.00 0.00 0.00 74 1023.0
20260507034328 58 38 0.9 0.9 0.00 0.00 0.00 74 1022.8
20260507033826 58 20 1.7 3.5 0.00 0.00 0.00 74 1022.7
20260507033324 58 283 4.3 5.2 0.00 0.00 0.00 75 1022.7
20260507032820 58 334 3.5 5.2 0.00 0.00 0.00 75 1022.7
20260507032317 58 297 1.7 2.6 0.00 0.00 0.00 76 1022.4
20260507031813 58 283 0.0 0.9 0.00 0.00 0.00 75 1022.4
20260507031310 59 278 1.7 3.5 0.00 0.00 0.00 75 1022.4
20260507030806 59 23 1.7 1.7 0.00 0.00 0.00 74 1022.3
20260507030305 60 266 0.0 2.6 0.00 0.00 0.00 74 1022.3
20260507025801 60 276 0.0 1.7 0.00 0.00 0.00 73 1022.2
20260507025258 61 276 0.0 1.7 0.00 0.00 0.00 72 1022.2
20260507024756 61 277 1.7 5.2 0.00 0.00 0.00 71 1022.2
20260507024253 61 276 0.9 2.6 0.00 0.00 0.00 71 1021.8
20260507023749 62 30 0.9 3.5 0.00 0.00 0.00 70 1022.2
20260507023246 62 52 1.7 1.7 0.00 0.00 0.00 69 1022.1
20260507022743 63 280 3.5 5.2 0.00 0.00 0.00 68 1022.0
20260507022239 63 293 0.9 2.6 0.00 0.00 0.00 69 1022.1
20260507021736 63 271 2.6 2.6 0.00 0.00 0.00 69 1021.9
20260507021231 62 6 0.9 6.1 0.00 0.00 0.00 69 1022.1
20260507020730 63 330 0.9 3.5 0.00 0.00 0.00 69 1022.2
20260507020226 63 352 0.9 1.7 0.00 0.00 0.00 70 1022.0
20260507015723 63 337 1.7 5.2 0.00 0.00 0.00 69 1022.0
20260507015221 64 313 0.0 1.7 0.00 0.00 0.00 70 1022.1
20260507014717 64 264 1.7 2.6 0.00 0.00 0.00 68 1022.1
20260507014213 64 42 1.7 3.5 0.00 0.00 0.00 69 1022.4
20260507013710 65 35 0.9 1.7 0.00 0.00 0.00 68 1022.1
20260507013208 65 8 0.9 1.7 0.00 0.00 0.00 68 1022.1
20260507012705 65 352 0.9 2.6 0.00 0.00 0.00 69 1021.9
20260507012200 65 260 2.6 2.6 0.00 0.00 0.00 68 1021.9
20260507011658 66 18 2.6 2.6 0.00 0.00 0.00 68 1021.8
20260507011154 67 354 0.0 3.5 0.00 0.00 0.00 67 1021.9
20260507010649 67 55 0.9 0.9 0.00 0.00 0.00 65 1022.0
20260507010145 67 83 0.0 0.9 0.00 0.00 0.00 65 1021.9
20260507005643 67 83 0.0 0.0 0.00 0.00 0.00 66 1022.0
20260507005139 67 86 0.0 0.0 0.00 0.00 0.00 64 1021.9
20260507004636 67 86 0.0 0.9 0.00 0.00 0.00 65 1021.9
20260507004133 67 86 0.0 0.0 0.00 0.00 0.00 66 1021.8
20260507003630 67 86 0.0 0.9 0.00 0.00 0.00 67 1021.6
20260507003130 67 98 0.9 1.7 0.00 0.00 0.00 67 1021.8
20260507002626 67 98 0.0 0.9 0.00 0.00 0.00 67 1021.9
20260507002122 67 62 0.9 1.7 0.00 0.00 0.00 66 1021.9
20260507001619 67 49 1.7 2.6 0.00 0.00 0.00 63 1022.0
20260507001117 68 326 0.0 0.0 0.00 0.00 0.00 67 1022.0
20260507000613 68 60 0.0 1.7 0.00 0.00 0.00 66 1021.9
20260507000108 68 29 0.0 1.7 0.00 0.00 0.00 64 1021.9
20260506235606 69 154 0.0 0.9 0.00 0.00 0.00 61 1021.8
20260506235106 69 121 1.7 1.7 0.00 0.00 0.00 61 1022.0
20260506234604 69 328 0.9 1.7 0.00 0.00 0.00 60 1021.9
20260506234101 69 326 1.7 1.7 0.00 0.00 0.00 61 1021.8
20260506233557 69 261 1.7 1.7 0.00 0.00 0.00 62 1022.1
20260506233054 69 300 2.6 2.6 0.00 0.00 0.00 58 1022.0
20260506232550 68 280 1.7 3.5 0.00 0.00 0.00 60 1022.1
20260506232046 68 145 1.7 5.2 0.00 0.00 0.00 63 1022.0
20260506231544 68 193 0.9 1.7 0.00 0.00 0.00 63 1022.2
20260506231042 69 89 1.7 1.7 0.00 0.00 0.00 61 1022.3
20260506230538 69 357 0.9 1.7 0.00 0.00 0.00 61 1022.3
20260506230035 69 232 0.9 2.6 0.00 0.00 0.00 61 1022.5
20260506225532 69 200 0.9 3.5 0.00 0.00 0.00 62 1022.5
20260506225028 68 324 0.0 1.7 0.00 0.00 0.00 62 1022.5
20260506224525 68 9 1.7 2.6 0.00 0.00 0.00 65 1022.6
20260506224022 67 35 0.0 1.7 0.00 0.00 0.00 65 1022.6
20260506223517 66 298 0.9 1.7 0.00 0.00 0.00 64 1022.6
20260506223014 65 278 0.9 1.7 0.00 0.00 0.00 66 1022.6
20260506222511 66 251 2.6 2.6 0.00 0.00 0.00 66 1022.6
20260506222007 66 231 2.6 2.6 0.00 0.00 0.00 65 1022.9
20260506221505 66 270 2.6 3.5 0.00 0.00 0.00 66 1022.9
20260506221003 66 223 1.7 9.6 0.00 0.00 0.00 67 1022.8
20260506220503 66 124 0.0 3.5 0.00 0.00 0.00 70 1022.7
20260506220000 67 162 3.5 7.0 0.00 0.00 0.00 65 1022.5
20260506215456 66 200 2.6 3.5 0.00 0.00 0.00 67 1022.7
20260506214952 66 93 0.9 2.6 0.00 0.00 0.00 69 1022.5
20260506214449 67 224 3.5 3.5 0.00 0.00 0.00 62 1022.9
20260506213947 67 180 2.6 3.5 0.00 0.00 0.00 67 1022.8
20260506213444 65 141 1.7 2.6 0.00 0.00 0.00 68 1022.9
20260506212941 65 131 2.6 3.5 0.00 0.00 0.00 70 1023.0
20260506212437 66 192 1.7 2.6 0.00 0.00 0.00 70 1023.1
20260506211937 65 225 0.0 1.7 0.00 0.00 0.00 70 1023.1
20260506211434 64 265 1.7 5.2 0.00 0.00 0.00 71 1023.1
20260506210931 64 173 0.9 3.5 0.00 0.00 0.00 70 1023.1
20260506210427 64 220 0.9 2.6 0.00 0.00 0.00 71 1023.2
20260506205925 64 185 5.2 7.0 0.00 0.00 0.00 68 1022.9
20260506205421 64 252 1.7 1.7 0.00 0.00 0.00 71 1023.0
20260506204917 64 155 1.7 1.7 0.00 0.00 0.00 73 1023.1
20260506204415 64 166 2.6 3.5 0.00 0.00 0.00 70 1022.9
20260506203912 65 213 2.6 3.5 0.00 0.00 0.00 67 1022.9
20260506203409 65 140 1.7 1.7 0.00 0.00 0.00 70 1023.1
20260506202906 64 168 2.6 5.2 0.00 0.00 0.00 74 1023.1
20260506202404 63 181 0.9 3.5 0.00 0.00 0.00 72 1023.3
20260506201900 62 176 0.9 1.7 0.00 0.00 0.00 74 1023.3
20260506201357 62 169 2.6 3.5 0.00 0.00 0.00 75 1023.3
20260506200854 62 218 2.6 5.2 0.00 0.00 0.00 72 1023.4
20260506200350 62 216 1.7 5.2 0.00 0.00 0.00 76 1023.4
20260506195846 62 183 2.6 3.5 0.00 0.00 0.00 75 1023.5
20260506195344 62 168 1.7 3.5 0.00 0.00 0.00 75 1023.4
20260506194840 61 211 1.7 2.6 0.00 0.00 0.00 75 1023.7
20260506194337 62 216 1.7 2.6 0.00 0.00 0.00 76 1023.5
20260506193834 62 234 0.0 2.6 0.00 0.00 0.00 76 1023.6
20260506193331 61 169 3.5 3.5 0.00 0.00 0.00 75 1023.5
20260506192827 61 185 1.7 5.2 0.00 0.00 0.00 74 1023.4
20260506192324 62 232 0.9 3.5 0.00 0.00 0.00 74 1023.2
20260506191821 62 189 3.5 5.2 0.00 0.00 0.00 75 1023.3
20260506191318 61 229 0.0 5.2 0.00 0.00 0.00 75 1023.3
20260506190815 62 221 0.9 2.6 0.00 0.00 0.00 76 1023.4
20260506190311 61 137 0.0 2.6 0.00 0.00 0.00 77 1023.2
20260506185808 61 106 3.5 5.2 0.00 0.00 0.00 74 1023.3
20260506185307 62 204 3.5 5.2 0.00 0.00 0.00 73 1023.4
20260506184802 62 249 0.9 3.5 0.00 0.00 0.00 75 1023.2
20260506184259 61 175 0.0 2.6 0.00 0.00 0.00 76 1023.4
20260506183756 61 216 2.6 5.2 0.00 0.00 0.00 74 1023.3
20260506183257 60 124 0.0 0.9 0.00 0.00 0.00 77 1023.4
20260506182754 61 138 3.5 5.2 0.00 0.00 0.00 74 1023.3
20260506182251 60 294 0.9 1.7 0.00 0.00 0.00 77 1023.3
20260506181749 60 215 2.6 3.5 0.00 0.00 0.00 76 1023.4
20260506181246 60 221 1.7 5.2 0.00 0.00 0.00 77 1023.5
20260506180743 60 188 2.6 3.5 0.00 0.00 0.00 76 1023.3
20260506180239 60 196 0.0 1.7 0.00 0.00 0.00 80 1023.3
20260506175735 60 222 1.7 2.6 0.00 0.00 0.00 78 1023.4
20260506175232 60 176 2.6 3.5 0.00 0.00 0.00 78 1023.3
20260506174730 60 159 4.3 5.2 0.00 0.00 0.00 78 1022.9
20260506174227 59 175 2.6 3.5 0.00 0.00 0.00 82 1023.0
20260506173725 59 130 0.9 2.6 0.00 0.00 0.00 81 1023.1
20260506173221 58 158 3.5 5.2 0.00 0.00 0.00 79 1023.2
20260506172718 58 238 1.7 3.5 0.00 0.00 0.00 80 1023.1
20260506172215 58 179 1.7 2.6 0.00 0.00 0.00 81 1023.2
20260506171712 58 180 0.0 1.7 0.00 0.00 0.00 81 1023.4
20260506171210 58 207 2.6 3.5 0.00 0.00 0.00 79 1023.1
20260506170707 58 203 1.7 1.7 0.00 0.00 0.00 80 1023.1
20260506170204 58 167 2.6 5.2 0.00 0.00 0.00 81 1023.1
20260506165702 58 246 0.9 5.2 0.00 0.00 0.00 83 1023.1
20260506165158 58 128 2.6 3.5 0.00 0.00 0.00 82 1023.1
20260506164655 58 206 0.9 1.7 0.00 0.00 0.00 81 1023.1
20260506164153 58 181 2.6 3.5 0.00 0.00 0.00 81 1023.1
20260506163649 58 213 1.7 3.5 0.00 0.00 0.00 80 1022.9
20260506163144 58 219 0.9 3.5 0.00 0.00 0.00 82 1022.9
20260506162641 57 205 1.7 3.5 0.00 0.00 0.00 82 1022.7
20260506162138 57 143 0.0 1.7 0.00 0.00 0.00 83 1023.1
20260506161635 57 232 1.7 2.6 0.00 0.00 0.00 82 1022.8
20260506161132 57 198 0.0 0.9 0.00 0.00 0.00 83 1022.7
20260506160630 58 193 0.0 1.7 0.00 0.00 0.00 82 1022.5
20260506160126 58 168 1.7 3.5 0.00 0.00 0.00 83 1022.2
20260506155625 57 168 1.7 3.5 0.00 0.00 0.00 85 1022.3
20260506155122 56 204 3.5 3.5 0.00 0.00 0.00 86 1022.9
20260506153218 56 211 1.7 2.6 0.00 0.00 0.00 85 1023.0
20260506152715 56 184 1.7 2.6 0.00 0.00 0.00 85 1023.1
20260506152212 56 189 0.9 2.6 0.00 0.00 0.00 84 1022.9
20260506151712 56 229 0.9 1.7 0.00 0.00 0.00 84 1023.1
20260506151208 56 226 1.7 3.5 0.00 0.00 0.00 84 1023.0
20260506150704 56 279 1.7 3.5 0.00 0.00 0.00 85 1023.0
20260506150201 56 201 1.7 1.7 0.00 0.00 0.00 86 1022.8
20260506145658 56 218 1.7 1.7 0.00 0.00 0.00 85 1022.9
20260506145155 56 290 0.9 1.7 0.00 0.00 0.00 85 1023.0
20260506144653 57 275 2.6 2.6 0.00 0.00 0.00 85 1022.9
20260506144149 57 276 3.5 2.6 0.00 0.00 0.00 83 1022.5
20260506143647 57 282 1.7 1.7 0.00 0.00 0.00 83 1022.3
20260506143144 57 179 0.0 0.0 0.00 0.00 0.00 85 1022.0
20260506142643 56 181 0.9 1.7 0.00 0.00 0.00 85 1021.9
20260506142140 56 125 0.0 0.0 0.00 0.00 0.00 86 1021.9
20260506141638 56 225 0.0 1.7 0.00 0.00 0.00 86 1022.0
20260506141136 56 214 0.9 2.6 0.00 0.00 0.00 86 1022.1
20260506140633 56 130 0.0 0.9 0.00 0.00 0.00 87 1022.1
20260506140130 56 209 0.9 0.9 0.00 0.00 0.00 86 1021.9
20260506135627 56 210 1.7 2.6 0.00 0.00 0.00 86 1021.9
20260506135123 56 141 0.0 0.9 0.00 0.00 0.00 86 1022.0
20260506134620 56 142 0.0 0.0 0.00 0.00 0.00 86 1022.0
20260506134115 56 208 0.0 0.9 0.00 0.00 0.00 86 1021.8
20260506133613 56 198 0.0 0.0 0.00 0.00 0.00 86 1021.8
20260506133110 56 198 0.0 0.0 0.00 0.00 0.00 86 1021.8
20260506132608 56 198 0.0 0.0 0.00 0.00 0.00 86 1021.9
20260506132104 56 198 0.0 0.9 0.00 0.00 0.00 85 1021.9
20260506131602 56 243 0.9 0.9 0.00 0.00 0.00 86 1021.9
20260506131058 55 266 0.0 0.0 0.00 0.00 0.00 85 1021.8
20260506130555 55 266 0.0 0.0 0.00 0.00 0.00 86 1021.8
20260506130053 55 266 0.0 0.0 0.00 0.00 0.00 86 1021.8
20260506125551 55 266 0.0 0.0 0.00 0.00 0.00 87 1021.7
20260506125048 56 266 0.0 0.0 0.00 0.00 0.00 86 1021.6
20260506124546 56 266 0.0 0.0 0.00 0.00 0.00 84 1021.7
20260506124043 56 266 0.0 0.0 0.00 0.00 0.00 84 1021.7
20260506123541 56 266 0.0 0.0 0.00 0.00 0.00 84 1021.7
20260506123039 56 266 0.0 0.0 0.00 0.00 0.00 83 1021.8
20260506122535 56 266 0.0 0.0 0.00 0.00 0.00 84 1021.7
20260506122033 56 267 0.0 0.0 0.00 0.00 0.00 84 1021.7
20260506121531 56 267 0.0 0.0 0.00 0.00 0.00 84 1021.9
20260506121027 56 267 0.0 0.0 0.00 0.00 0.00 84 1021.5
20260506120525 56 267 0.0 0.0 0.00 0.00 0.00 83 1021.5
20260506120022 56 270 0.9 0.9 0.00 0.00 0.00 83 1021.4